Everett, WA

2:52 AM PDT on September 21, 2017 (GMT -0700)
Snohomish County

Weather History for KPAE - December, 2012

Change the Weather History Date:

Monday, December 24, 2012

  Actual Average Record
Temperature  
Mean Temperature 40 °F -  
Max Temperature 42 °F 43 °F 59 °F (1950)
Min Temperature 37 °F 34 °F 6 °F (1983)
Degree Days  
Heating Degree Days 26    
Moisture  
Dew Point 37 °F    
Average Humidity 90    
Maximum Humidity 96    
Minimum Humidity 76    
Precipitation  
Precipitation 0.06 in - - ()
Sea Level Pressure  
Sea Level Pressure 30.06 in    
Wind  
Wind Speed 4 mph (South)    
Max Wind Speed 8 mph    
Max Gust Speed -    
Visibility 8 miles    
Events Rain    
Averages and records for this station are not official NWS values.
T = Trace of Precipitation, MM = Missing Value Source: NWS Daily Summary

Daily Weather History Graph

Daily Weather History Graph

Search for Another Location

Airport or City:

Trip Planner

Search our weather history database for the weather conditions in past years. The results will help you decide how hot, cold, wet, or windy it might be!

Date:

Astronomy

Dec. 24, 2012 Rise Set
Actual Time 7:57 AM PST 4:20 PM PST
Civil Twilight 7:21 AM PST 4:57 PM PST
Nautical Twilight 6:41 AM PST 5:36 PM PST
Astronomical Twilight 6:03 AM PST 6:14 PM PST
Moon 1:56 PM PST (12/24) 4:34 AM PST (12/24)
Length of Visible Light 9h 36m
Length of Day
8h 23m
Waxing Gibbous, 89% of the Moon is Illuminated
Dec 24
Waxing Gibbous
Dec 28
Full
Jan 4
Last Quarter
Jan 11
New
Jan 18
First Quarter

Hourly Weather History & Observations

Time (PST) Temp. Windchill Dew Point Humidity Pressure Visibility Wind Dir Wind Speed Gust Speed Precip Events Conditions
12:31 AM 37.4 °F 34.9 °F 35.6 °F 93% 29.82 in 6.0 mi SSE 3.5 mph - 0.01 in Rain Light Rain
12:53 AM 37.0 °F 32.4 °F 35.1 °F 93% 29.84 in 5.0 mi SSE 5.8 mph - 0.01 in Rain Light Rain
1:53 AM 37.9 °F 34.4 °F 36.0 °F 93% 29.87 in 4.0 mi SSE 4.6 mph - 0.00 in Rain Light Rain
2:53 AM 39.0 °F - 36.0 °F 89% 29.90 in 6.0 mi Calm Calm - 0.00 in   Overcast
3:38 AM 39.2 °F 35.9 °F 37.4 °F 93% 29.91 in 10.0 mi SW 4.6 mph - N/A   Overcast
3:45 AM 39.2 °F 35.0 °F 37.4 °F 93% 29.92 in 10.0 mi SW 5.8 mph - N/A   Overcast
3:53 AM 39.0 °F 35.7 °F 37.0 °F 93% 29.94 in 10.0 mi SW 4.6 mph - N/A   Overcast
4:10 AM 39.2 °F 34.2 °F 37.4 °F 93% 29.93 in 10.0 mi SSW 6.9 mph - N/A   Overcast
4:14 AM 39.2 °F 35.9 °F 37.4 °F 93% 29.93 in 10.0 mi SW 4.6 mph - N/A   Overcast
4:24 AM 39.2 °F 37.0 °F 37.4 °F 93% 29.94 in 10.0 mi WSW 3.5 mph - N/A   Overcast
4:43 AM 39.2 °F 37.0 °F 37.4 °F 93% 29.94 in 10.0 mi SW 3.5 mph - N/A   Overcast
4:53 AM 39.0 °F - 37.0 °F 93% 29.96 in 10.0 mi Calm Calm - N/A   Overcast
5:53 AM 39.0 °F - 37.0 °F 93% 29.99 in 10.0 mi Calm Calm - N/A   Overcast
6:17 AM 39.2 °F - 37.4 °F 93% 29.99 in 10.0 mi Calm Calm - N/A   Overcast
6:34 AM 39.2 °F - 37.4 °F 93% 30.00 in 10.0 mi Calm Calm - N/A   Overcast
6:42 AM 39.2 °F - 37.4 °F 93% 30.00 in 10.0 mi Calm Calm - N/A   Overcast
6:53 AM 39.0 °F - 37.0 °F 93% 30.02 in 10.0 mi Calm Calm - N/A   Overcast
7:53 AM 39.0 °F 36.8 °F 37.9 °F 96% 30.05 in 5.0 mi South 3.5 mph - 0.00 in Rain Light Rain
8:36 AM 39.2 °F 37.0 °F 37.4 °F 93% 30.06 in 2.0 mi South 3.5 mph - 0.01 in Rain Light Rain
8:53 AM 39.9 °F 36.7 °F 37.9 °F 93% 30.09 in 2.0 mi South 4.6 mph - 0.01 in Rain Light Rain
9:53 AM 39.9 °F 36.7 °F 36.0 °F 86% 30.11 in 2.0 mi South 4.6 mph - 0.02 in Rain Light Rain
10:00 AM 39.2 °F 37.0 °F 35.6 °F 87% 30.10 in 8.0 mi South 3.5 mph - 0.00 in Rain Light Rain
10:27 AM 39.2 °F 37.0 °F 37.4 °F 93% 30.11 in 4.0 mi SW 3.5 mph - 0.01 in Rain Light Rain
10:53 AM 39.9 °F - 37.9 °F 93% 30.13 in 4.0 mi Calm Calm - 0.01 in Rain Light Rain
11:53 AM 41.0 °F 38.0 °F 37.9 °F 89% 30.14 in 10.0 mi WSW 4.6 mph - 0.00 in   Overcast
12:22 PM 41.0 °F - 37.4 °F 87% 30.13 in 10.0 mi Calm Calm - N/A   Mostly Cloudy
12:53 PM 42.1 °F - 37.9 °F 85% 30.15 in 10.0 mi Calm Calm - N/A   Mostly Cloudy
1:04 PM 42.8 °F 39.3 °F 37.4 °F 81% 30.14 in 10.0 mi South 5.8 mph - N/A   Overcast
1:53 PM 42.1 °F 38.4 °F 37.0 °F 82% 30.16 in 10.0 mi SSE 5.8 mph - N/A   Overcast
2:18 PM 42.8 °F 40.1 °F 35.6 °F 76% 30.14 in 10.0 mi SSE 4.6 mph - N/A   Overcast
2:53 PM 42.1 °F 40.2 °F 37.0 °F 82% 30.16 in 10.0 mi SE 3.5 mph - N/A   Overcast
3:32 PM 41.0 °F 38.0 °F 37.4 °F 87% 30.15 in 10.0 mi SSE 4.6 mph - N/A   Overcast
3:53 PM 41.0 °F 37.1 °F 37.0 °F 86% 30.16 in 10.0 mi SSE 5.8 mph - N/A   Overcast
3:56 PM 39.2 °F 33.6 °F 35.6 °F 87% 30.15 in 10.0 mi SSE 8.1 mph - N/A   Overcast
4:53 PM 39.0 °F 34.8 °F 36.0 °F 89% 30.16 in 10.0 mi SSE 5.8 mph - N/A   Mostly Cloudy
5:53 PM 39.9 °F 35.1 °F 37.0 °F 89% 30.16 in 10.0 mi SE 6.9 mph - N/A   Overcast
6:18 PM 39.2 °F 34.2 °F 37.4 °F 93% 30.14 in 10.0 mi Variable 6.9 mph - N/A   Overcast
6:28 PM 39.2 °F 37.0 °F 37.4 °F 93% 30.14 in 8.0 mi Variable 3.5 mph - N/A   Overcast
6:53 PM 39.9 °F 35.1 °F 37.0 °F 89% 30.14 in 6.0 mi SE 6.9 mph - 0.00 in Rain Light Rain
7:10 PM 39.2 °F 33.6 °F 37.4 °F 93% 30.13 in 10.0 mi SSE 8.1 mph - 0.01 in Rain Light Rain
7:33 PM 39.2 °F 34.2 °F 37.4 °F 93% 30.12 in 10.0 mi Variable 6.9 mph - 0.01 in   Overcast
7:53 PM 39.9 °F - 37.9 °F 93% 30.12 in 9.0 mi Calm Calm - 0.01 in   Overcast
8:30 PM 39.2 °F 37.0 °F 37.4 °F 93% 30.09 in 10.0 mi Variable 3.5 mph - N/A   Scattered Clouds
8:53 PM 39.0 °F 35.7 °F 37.0 °F 93% 30.12 in 10.0 mi SSE 4.6 mph - N/A   Clear
9:53 PM 39.0 °F 34.8 °F 36.0 °F 89% 30.11 in 10.0 mi SE 5.8 mph - N/A   Clear
10:53 PM 37.9 °F 32.7 °F 35.1 °F 89% 30.09 in 10.0 mi ESE 6.9 mph - N/A   Clear
11:53 PM 37.9 °F 33.5 °F 34.0 °F 86% 30.06 in 10.0 mi ESE 5.8 mph - N/A   Clear